Weather History for Hawthorne, CA

Change the Weather History Date:

Tuesday, December 4, 2012

  Actual Average Record
Temperature  
Mean Temperature 60 °F -  
Max Temperature 64 °F 67 °F 86 °F (1979)
Min Temperature 55 °F 50 °F 39 °F (1948)
Degree Days  
Heating Degree Days 6    
Growing Degree Days 10 (Base 50)    
Moisture  
Dew Point 54 °F    
Average Humidity 82    
Maximum Humidity 90    
Minimum Humidity 68    
Precipitation  
Precipitation 0.01 in - - ()
Sea Level Pressure  
Sea Level Pressure 30.19 in    
Wind  
Wind Speed 2 mph (West)    
Max Wind Speed 8 mph    
Max Gust Speed -    
Visibility 8 miles    
Events      
Averages and records for this station are not official NWS values.
T = Trace of Precipitation, MM = Missing Value Source: NWS Daily Summary

Daily Weather History Graph

Daily Weather History Graph

Search for Another Location

Airport:

Trip Planner

Search our weather history database for the weather conditions in past years. The results will help you decide how hot, cold, wet, or windy it might be!

Date:

Astronomy

Dec. 04, 2012 Rise Set
Actual Time 6:43 AM PST 4:44 PM PST
Civil Twilight 6:15 AM PST 5:11 PM PST
Nautical Twilight 5:45 AM PST 5:42 PM PST
Astronomical Twilight 5:14 AM PST 6:12 PM PST
Moon 10:25 PM PST (12/4) 10:49 AM PST (12/4)
Length of Visible Light 10h 55m
Length of Day
10h 00m
Waning Gibbous, 68% of the Moon is Illuminated
Dec 4
Waning Gibbous
Dec 6
Last Quarter
Dec 13
New
Dec 19
First Quarter
Dec 28
Full

Hourly Weather History & Observations

Time (PST) Temp. Dew Point Humidity Pressure Visibility Wind Dir Wind Speed Gust Speed Precip Events Conditions
12:53 AM 57.9 °F 53.1 °F 84% 30.19 in 10.0 mi SE 3.5 mph - N/A   Clear
1:44 AM 57.2 °F 53.6 °F 88% 30.20 in 10.0 mi Calm Calm - N/A   Mostly Cloudy
1:53 AM 57.9 °F 53.1 °F 84% 30.20 in 10.0 mi Calm Calm - N/A   Overcast
3:53 AM 55.9 °F 52.0 °F 87% 30.21 in 10.0 mi Calm Calm - N/A   Clear
4:53 AM 55.9 °F 52.0 °F 87% 30.21 in 10.0 mi Calm Calm - N/A   Clear
5:53 AM 55.9 °F 52.0 °F 87% 30.22 in 9.0 mi Calm Calm - N/A   Clear
6:53 AM 55.9 °F 52.0 °F 87% 30.22 in 5.0 mi Calm Calm - N/A   Partly Cloudy
7:29 AM 57.2 °F 53.6 °F 88% 30.23 in 4.0 mi Calm Calm - N/A   Mostly Cloudy
7:53 AM 57.9 °F 53.1 °F 84% 30.23 in 4.0 mi Calm Calm - N/A   Haze
8:53 AM 61.0 °F 54.0 °F 78% 30.25 in 5.0 mi Calm Calm - N/A   Haze
9:53 AM 62.1 °F 53.1 °F 72% 30.25 in 5.0 mi Calm Calm - N/A   Haze
10:53 AM 64.9 °F 54.0 °F 68% 30.24 in 5.0 mi WSW 5.8 mph - N/A   Haze
11:09 AM 64.4 °F 55.4 °F 73% 30.23 in 5.0 mi West 6.9 mph - N/A   Haze
11:53 AM 63.0 °F 54.0 °F 72% 30.21 in 5.0 mi WNW 4.6 mph - N/A   Haze
12:53 PM 63.0 °F 54.0 °F 72% 30.18 in 6.0 mi West 8.1 mph - N/A   Haze
1:53 PM 62.1 °F 55.0 °F 78% 30.17 in 6.0 mi West 8.1 mph - N/A   Haze
2:53 PM 62.1 °F 55.0 °F 78% 30.17 in 6.0 mi WNW 5.8 mph - N/A   Haze
3:00 PM 62.6 °F 55.4 °F 77% 30.16 in 7.0 mi WNW 5.8 mph - N/A   Partly Cloudy
3:53 PM 62.1 °F 55.0 °F 78% 30.15 in 10.0 mi West 3.5 mph - N/A   Clear
4:53 PM 61.0 °F 55.9 °F 83% 30.15 in 9.0 mi West 3.5 mph - N/A   Partly Cloudy
5:53 PM 61.0 °F 55.0 °F 81% 30.15 in 10.0 mi West 5.8 mph - N/A   Clear
6:53 PM 60.1 °F 55.9 °F 86% 30.16 in 10.0 mi West 4.6 mph - N/A   Clear
7:53 PM 60.1 °F 55.0 °F 83% 30.17 in 10.0 mi Calm Calm - N/A   Clear
8:53 PM 59.0 °F 55.0 °F 87% 30.16 in 10.0 mi Calm Calm - N/A   Clear
9:53 PM 57.9 °F 54.0 °F 87% 30.17 in 10.0 mi Calm Calm - N/A   Clear
10:53 PM 57.0 °F 54.0 °F 89% 30.16 in 8.0 mi Calm Calm - N/A   Clear
11:53 PM 55.9 °F 53.1 °F 90% 30.16 in 9.0 mi Calm Calm - 0.01 in   Clear